When you browse on this site, cookies collect data to enhance your experience and personalize the content and advertising you see.
Visit our Privacy Policy to learn more. By continuing to use the site, you agree to this use of cookies and data.
  • In Hungary
  • List of Countries
  • For 7 days
  • Water Temperature
  • Satellite Maps
  • Weather Map
  • News
  • Weather Widgets
  • user-avatar
    Login

    Hourly Weather Totton

    Today, 13 December, Thursday

    Time Temperature Precipitation Wind Pressure Humidity
    00:00 +1°C° 0 mm 9 mps 758 mmHg 76%
    01:00 +1°C° 0 mm 9 mps 757 mmHg 75%
    02:00 +1°C° 0 mm 9 mps 757 mmHg 75%
    03:00 +1°C° 0 mm 10 mps 756 mmHg 74%
    04:00 +1°C° 0 mm 9 mps 756 mmHg 74%
    05:00 +1°C° 0 mm 9 mps 756 mmHg 74%
    06:00 +1°C° 0 mm 9 mps 756 mmHg 74%
    07:00 +1°C° 0 mm 9 mps 756 mmHg 74%
    08:00 +1°C° 0 mm 9 mps 756 mmHg 74%
    09:00 +1°C° 0 mm 9 mps 756 mmHg 73%
    10:00 +2°C° 0 mm 9 mps 756 mmHg 71%
    11:00 +2°C° 0 mm 10 mps 756 mmHg 69%
    12:00 +3°C° 0 mm 10 mps 757 mmHg 67%
    13:00 +2°C° 0 mm 9 mps 757 mmHg 67%
    14:00 +2°C° 0 mm 9 mps 757 mmHg 68%
    15:00 +2°C° 0 mm 8 mps 757 mmHg 68%
    16:00 +1°C° 0 mm 8 mps 757 mmHg 70%
    17:00 0°C° 0 mm 8 mps 758 mmHg 72%
    18:00 0°C° 0 mm 7 mps 758 mmHg 73%
    19:00 -1°C° 0 mm 7 mps 759 mmHg 75%
    20:00 -1°C° 0 mm 6 mps 759 mmHg 76%
    21:00 -1°C° 0 mm 6 mps 760 mmHg 78%
    22:00 -1°C° 0 mm 6 mps 760 mmHg 78%
    23:00 -1°C° 0 mm 5 mps 760 mmHg 79%

    Tomorrow, 14 December, Friday

    Time Temperature Precipitation Wind Pressure Humidity
    00:00 -1°C° 0 mm 5 mps 761 mmHg 80%
    01:00 -1°C° 0 mm 5 mps 761 mmHg 80%
    02:00 -1°C° 0 mm 5 mps 761 mmHg 80%
    03:00 -2°C° 0 mm 5 mps 762 mmHg 79%
    04:00 -2°C° 0 mm 5 mps 762 mmHg 79%
    05:00 -2°C° 0 mm 5 mps 762 mmHg 78%
    06:00 -2°C° 0 mm 5 mps 762 mmHg 78%
    07:00 -2°C° 0 mm 4 mps 762 mmHg 78%
    08:00 -2°C° 0 mm 4 mps 763 mmHg 77%
    09:00 -1°C° 0 mm 4 mps 763 mmHg 77%
    10:00 0°C° 0 mm 4 mps 763 mmHg 74%
    11:00 +1°C° 0 mm 5 mps 763 mmHg 70%
    12:00 +3°C° 0 mm 5 mps 763 mmHg 67%
    13:00 +3°C° 0 mm 4 mps 763 mmHg 68%
    14:00 +3°C° 0 mm 4 mps 763 mmHg 70%
    15:00 +3°C° 0 mm 3 mps 763 mmHg 72%
    16:00 +1°C° 0 mm 4 mps 763 mmHg 75%
    17:00 0°C° 0 mm 4 mps 763 mmHg 79%
    18:00 -1°C° 0 mm 4 mps 763 mmHg 82%
    19:00 0°C° 0 mm 4 mps 762 mmHg 81%
    20:00 0°C° 0 mm 5 mps 762 mmHg 80%
    21:00 0°C° 0 mm 5 mps 762 mmHg 79%
    22:00 0°C° 0 mm 5 mps 762 mmHg 77%
    23:00 +1°C° 0 mm 6 mps 761 mmHg 76%

    Day after tomorrow, 15 December, Saturday

    Time Temperature Precipitation Wind Pressure Humidity
    00:00 +1°C° 0 mm 6 mps 761 mmHg 74%
    01:00 +1°C° 0 mm 6 mps 760 mmHg 75%
    02:00 0°C° 0 mm 7 mps 760 mmHg 76%
    03:00 0°C° 0 mm 7 mps 759 mmHg 77%
    04:00 +2°C° 0.3 mm 7 mps 758 mmHg 77%
    05:00 +1°C° 0.3 mm 8 mps 757 mmHg 76%
    06:00 +1°C° 0.3 mm 9 mps 756 mmHg 76%
    07:00 +2°C° 2.1 mm 9 mps 756 mmHg 80%
    08:00 +2°C° 2.1 mm 10 mps 755 mmHg 84%
    09:00 +2°C° 2.1 mm 10 mps 754 mmHg 87%
    10:00 +2°C° 1 mm 11 mps 753 mmHg 89%
    11:00 +3°C° 1 mm 11 mps 752 mmHg 90%
    12:00 +3°C° 1 mm 11 mps 752 mmHg 92%
    13:00 +4°C° 1.9 mm 11 mps 751 mmHg 93%
    14:00 +6°C° 1.9 mm 11 mps 749 mmHg 94%
    15:00 +7°C° 1.9 mm 10 mps 748 mmHg 94%
    16:00 +8°C° 1.6 mm 11 mps 747 mmHg 94%
    17:00 +9°C° 1.6 mm 12 mps 746 mmHg 94%
    18:00 +10°C° 1.6 mm 12 mps 745 mmHg 93%
    19:00 +9°C° 1.1 mm 12 mps 745 mmHg 88%
    20:00 +8°C° 1.1 mm 11 mps 745 mmHg 83%
    21:00 +7°C° 1.1 mm 11 mps 745 mmHg 78%
    22:00 +6°C° 0 mm 10 mps 746 mmHg 79%
    23:00 +6°C° 0 mm 9 mps 747 mmHg 79%

    16 December, Sunday

    Time Temperature Precipitation Wind Pressure Humidity
    00:00 +5°C° 0 mm 9 mps 748 mmHg 79%
    01:00 +5°C° 0 mm 8 mps 749 mmHg 79%
    02:00 +4°C° 0 mm 8 mps 750 mmHg 80%
    03:00 +4°C° 0 mm 7 mps 750 mmHg 80%
    04:00 +4°C° 0 mm 6 mps 750 mmHg 82%
    05:00 +3°C° 0 mm 5 mps 751 mmHg 83%
    06:00 +3°C° 0 mm 5 mps 751 mmHg 85%
    07:00 +4°C° 0.1 mm 4 mps 752 mmHg 86%
    08:00 +4°C° 0.1 mm 4 mps 752 mmHg 86%
    09:00 +4°C° 0.1 mm 4 mps 753 mmHg 87%
    10:00 +5°C° 0 mm 4 mps 752 mmHg 83%
    11:00 +7°C° 0 mm 5 mps 752 mmHg 80%
    12:00 +8°C° 0 mm 5 mps 752 mmHg 76%
    13:00 +8°C° 0.4 mm 5 mps 752 mmHg 79%
    14:00 +7°C° 0.4 mm 6 mps 752 mmHg 81%
    15:00 +7°C° 0.4 mm 6 mps 752 mmHg 84%
    16:00 +7°C° 0.9 mm 6 mps 752 mmHg 86%
    17:00 +6°C° 0.9 mm 5 mps 752 mmHg 88%
    18:00 +6°C° 0.9 mm 5 mps 752 mmHg 90%
    19:00 +6°C° 0.4 mm 5 mps 753 mmHg 90%
    20:00 +5°C° 0.4 mm 5 mps 753 mmHg 89%
    21:00 +4°C° 0.4 mm 6 mps 753 mmHg 89%
    22:00 +3°C° 0 mm 5 mps 754 mmHg 89%
    23:00 +3°C° 0 mm 5 mps 754 mmHg 90%

    17 December, Monday

    Time Temperature Precipitation Wind Pressure Humidity
    00:00 +2°C° 0 mm 5 mps 755 mmHg 90%
    01:00 +2°C° 0 mm 5 mps 755 mmHg 90%
    02:00 +2°C° 0 mm 5 mps 755 mmHg 90%
    03:00 +3°C° 0 mm 4 mps 756 mmHg 90%
    04:00 +3°C° 0 mm 4 mps 756 mmHg 90%
    05:00 +3°C° 0 mm 4 mps 756 mmHg 91%
    06:00 +3°C° 0 mm 4 mps 757 mmHg 91%
    07:00 +3°C° 0 mm 4 mps 757 mmHg 91%
    08:00 +3°C° 0 mm 3 mps 758 mmHg 90%
    09:00 +3°C° 0 mm 3 mps 758 mmHg 90%
    10:00 +4°C° 0 mm 3 mps 759 mmHg 86%
    11:00 +7°C° 0 mm 3 mps 759 mmHg 83%
    12:00 +8°C° 0 mm 3 mps 759 mmHg 79%
    13:00 +8°C° 0 mm 3 mps 759 mmHg 81%
    14:00 +8°C° 0 mm 3 mps 759 mmHg 82%
    15:00 +7°C° 0 mm 3 mps 759 mmHg 84%
    16:00 +6°C° 0 mm 4 mps 759 mmHg 86%
    17:00 +6°C° 0 mm 4 mps 759 mmHg 87%
    18:00 +5°C° 0 mm 5 mps 759 mmHg 89%
    19:00 +5°C° 0 mm 5 mps 759 mmHg 89%
    20:00 +5°C° 0 mm 6 mps 759 mmHg 90%
    21:00 +5°C° 0 mm 6 mps 758 mmHg 90%
    22:00 +6°C° 0 mm 7 mps 758 mmHg 89%
    23:00 +8°C° 0 mm 7 mps 758 mmHg 89%

    18 December, Tuesday

    Time Temperature Precipitation Wind Pressure Humidity
    00:00 +7°C° 0 mm 8 mps 757 mmHg 88%
    01:00 +7°C° 0.1 mm 8 mps 757 mmHg 88%
    02:00 +9°C° 0.1 mm 8 mps 756 mmHg 88%
    03:00 +8°C° 0.1 mm 9 mps 756 mmHg 87%
    04:00 +8°C° 0 mm 9 mps 755 mmHg 87%
    05:00 +8°C° 0 mm 10 mps 754 mmHg 87%
    06:00 +8°C° 0 mm 10 mps 753 mmHg 86%
    07:00 +8°C° 0 mm 10 mps 752 mmHg 85%
    08:00 +7°C° 0 mm 10 mps 752 mmHg 83%
    09:00 +7°C° 0 mm 11 mps 752 mmHg 82%
    10:00 +7°C° 0.3 mm 11 mps 751 mmHg 81%
    11:00 +7°C° 0.3 mm 11 mps 751 mmHg 79%
    12:00 +7°C° 0.3 mm 11 mps 750 mmHg 78%
    13:00 +7°C° 0.3 mm 10 mps 749 mmHg 79%
    14:00 +7°C° 0.3 mm 10 mps 749 mmHg 79%
    15:00 +6°C° 0.3 mm 9 mps 748 mmHg 80%
    16:00 +6°C° 1.3 mm 9 mps 747 mmHg 83%
    17:00 +6°C° 1.3 mm 9 mps 746 mmHg 86%
    18:00 +6°C° 1.3 mm 9 mps 745 mmHg 88%
    19:00 +6°C° 0.9 mm 8 mps 745 mmHg 90%
    20:00 +6°C° 0.9 mm 8 mps 745 mmHg 91%
    21:00 +6°C° 0.9 mm 7 mps 744 mmHg 92%
    22:00 +6°C° 0.2 mm 7 mps 744 mmHg 92%
    23:00 +6°C° 0.2 mm 7 mps 744 mmHg 91%
    Show more